User: anonymous   Login
Location: Ciserano
(45.5833°N, 9.6000°E)
Time: 21:23:53
(UTC+00:00)
Language:

Cosmos 1812 - Orbit

View from above orbital plane
View from above orbital plane
View from above satellite
View from above satellite

Ground track
Ground track

The orbit data is extracted from the following two-line orbital elements,

1 17295U 87003A   21055.28929662  .00001153  00000-0  58680-4 0  9990
2 17295  82.5116 257.3188 0004437 124.9569 235.2081 15.15851994862855
Epoch (UTC): 24 February 2021 06:56:35
Eccentricity: 0.0004437
inclination: 82.5116°
perigee height: 515 km
apogee height: 521 km
right ascension of ascending node: 257.3188°
argument of perigee: 124.9569°
revolutions per day: 15.15851994
mean anomaly at epoch: 235.2081°
orbit number at epoch: 86285

The dashed part of the orbit path shows where the satellite is in the earth's shadow,  

DLR